Location: Unspecified
(0.0000°N, 0.0000°E)
Time: 21:39:03
(UTC+00:00)

Courier 1B Rocket - Pass Details

Date: 21 October 2021
Orbit: 920 x 1202 km, 28.2° (Epoch: 06 December)

Event Time Altitude Azimuth Distance (km) Brightness Sun altitude
Exits shadow 04:13:37 - 221° (SW) 3,216 7.4 -22.3°
Reaches altitude 10° 04:15:13 10° 209° (SSW) 3,080 7.4 -21.9°
Maximum altitude 04:16:49 11° 197° (SSW) 3,041 7.5 -21.6°
Drops below altitude 10° 04:18:26 10° 185° (S) 3,106 7.7 -21.2°
Sets 04:24:35 0° 149° (SSE) 4,097 8.9 -19.7°
